Regional Weather Roundup
Issued by NWS

Home | Current Version | Previous Version | Graphics & Text | Print | Product List | Glossary On
Versions: 1 2 3 4 5 6 7 8 9 10 11 12 13 14 15 16 17 18 19 20 21 22 23 24 25 26 27 28 29 30 31 32 33 34 35 36 37 38 39 40 41 42 43 44 45 46 47 48 49 50
802
ASUS45 KCYS 171210
RWRWY

WYOMING REGIONAL WEATHER ROUNDUP
NATIONAL WEATHER SERVICE CHEYENNE WY
600 AM MDT TUE OCT 17 2017

NOTE:  "FAIR" INDICATES FEW OR NO CLOUDS BELOW 12,000 FEET
WITH NO SIGNIFICANT WEATHER AND/OR OBSTRUCTIONS TO VISIBILITY.

WYZ001-171300-
YELLOWSTONE NATIONAL PARK

CITY           SKY/WX    TMP DP  RH WIND       PRES   REMARKS
LK YELLOWSTONE   N/A     21  52 100 NW3       30.38R
6HR MIN TEMP:  21; 6HR MAX TEMP:  25;

W YELLOWSTONE  NOT AVBL

$$
WYZ002>013-054>058-071-098>099-171300-
NORTHERN WYOMING

CITY           SKY/WX    TMP DP  RH WIND       PRES   REMARKS
JACKSON        NOT AVBL
CODY           FAIR      55  16  21 W8        30.18S
GREYBULL       FAIR      32  26  78 CALM      30.16S
6HR MIN TEMP:  30; 6HR MAX TEMP:  41;

WORLAND        FAIR      31  28  89 S9        30.16F WCI  23
6HR MIN TEMP:  30; 6HR MAX TEMP:  39;

SHERIDAN       FAIR      36  25  64 SW6       30.07F WCI  31
6HR MIN TEMP:  35; 6HR MAX TEMP:  48;

BUFFALO        FAIR      49  12  22 W7        30.12S
6HR MIN TEMP:  45; 6HR MAX TEMP:  56;

GILLETTE       FAIR      46  22  38 CALM      30.09F
6HR MIN TEMP:  35; 6HR MAX TEMP:  51;

HULETT         FAIR      43  25  49 SW7       30.09F
NEWCASTLE      FAIR      32  25  74 E3        30.14S

$$
WYZ014>020-022>026-101>103-171300-
CENTRAL WYOMING

CITY           SKY/WX    TMP DP  RH WIND       PRES   REMARKS
BIG PINEY      FAIR      18  12  77 CALM      30.38S
6HR MIN TEMP:  18; 6HR MAX TEMP:  31;

PINEDALE       NOT AVBL
DUBOIS         FAIR      32  16  51 W15       30.30S WCI  22
LANDER         NOT AVBL
RIVERTON       FAIR      40  19  43 N5        30.22R
6HR MIN TEMP:  40; 6HR MAX TEMP:  46;

CASPER         FAIR      42  15  33 W12       30.19F
6HR MIN TEMP:  36; 6HR MAX TEMP:  42;

DOUGLAS        FAIR      28  21  75 N3        30.18S
6HR MIN TEMP:  25; 6HR MAX TEMP:  37;


$$
WYZ021-027>030-104>119-171300-
SOUTHERN WYOMING

CITY           SKY/WX    TMP DP  RH WIND       PRES   REMARKS
EVANSTON       FAIR      41   5  22 S8        30.39S
6HR MIN TEMP:  38; 6HR MAX TEMP:  45;

KEMMERER       FAIR      32  12  43 NW7       30.40S WCI  26
FORT BRIDGER   FAIR      39   5  23 W9        30.41R WCI  33
ROCK SPRINGS   FAIR      39   3  22 W9        30.36S WCI  33
6HR MIN TEMP:  38; 6HR MAX TEMP:  45;

DIXON          FAIR      27  13  54 E5        30.41S WCI  22
RAWLINS        FAIR      43   6  21 SW16      30.32R
6HR MIN TEMP:  37; 6HR MAX TEMP:  46;

SARATOGA       FAIR      32  10  40 SE7       30.36S WCI  26
LARAMIE        FAIR      38  10  31 SW14      30.32S WCI  30
6HR MIN TEMP:  31; 6HR MAX TEMP:  38;

CHEYENNE       FAIR      45  12  26 SW15      30.26F
6HR MIN TEMP:  37; 6HR MAX TEMP:  49;

TORRINGTON     FAIR      31  23  72 CALM      30.16S
6HR MIN TEMP:  28; 6HR MAX TEMP:  40;

PINE BLUFFS    FAIR      32  19  59 MISG      30.24S

$$




USA.gov is the U.S. government's official web portal to all federal, state and local government web resources and services.